OAO 2

Last updated on Wed Sep 23 2026 00:02:22 GMT+0000 (Coordinated Universal Time)

1 03597U 68110A 26265.04703847 .00000125 00000+0 38639-4 0 9994 2 03597 34.9929 248.8358 0005721 327.2532 32.7804 14.47381887 47566
UTC large
Height (km)
Speed (km/s)
/
Latitude / Longitude
Inclination (degrees)
Orbital Period (minutes)
Azimuth
Elevation
Range (km)
Doppler Factor

Next 0 passes for location: London (51.5072 / 0.1276)

No passes found over London.
OAO 2